Location: Cantaing
(50.1487°N, 3.1675°E)
Time: 16:52:48
(UTC+00:00)

ISS - Pass Details

Date: 13 March 2026
Orbit: 416 x 425 km, 51.6° (Epoch: 18 April)

Event Time Altitude Azimuth Distance (km) Brightness Sun altitude
Rises 18:39:53 0° 213° (SSW) 2,377 0.4 -9.0°
Reaches altitude 10° 18:42:15 10° 198° (SSW) 1,513 -0.8 -9.3°
Maximum altitude 18:45:01 23° 144° (SE) 944 -2.4 -9.8°
Enters shadow 18:46:53 15° 100° (E) 1,237 -2.1 -10.1°
